Weather History for Ogden Hill AFB, UT

Change the Weather History Date:

Tuesday, January 1, 2013

  Actual Average Record
Temperature  
Mean Temperature 16 °F -  
Max Temperature 21 °F 34 °F 53 °F (1997)
Min Temperature 10 °F 22 °F 5 °F (2008)
Degree Days  
Heating Degree Days 50    
Moisture  
Dew Point 11 °F    
Average Humidity 80    
Maximum Humidity 93    
Minimum Humidity 68    
Precipitation  
Precipitation 0.00 in - - ()
Sea Level Pressure  
Sea Level Pressure 30.39 in    
Wind  
Wind Speed 5 mph (SE)    
Max Wind Speed 10 mph    
Max Gust Speed -    
Visibility 9 miles    
Events Rain , Snow    
Averages and records for this station are not official NWS values.
T = Trace of Precipitation, MM = Missing Value Source: NWS Daily Summary

Daily Weather History Graph

Daily Weather History Graph

Search for Another Location

Airport:

Trip Planner

Search our weather history database for the weather conditions in past years. The results will help you decide how hot, cold, wet, or windy it might be!

Date:

Astronomy

Jan. 01, 2013 Rise Set
Actual Time 7:53 AM MST 5:10 PM MST
Civil Twilight 7:22 AM MST 5:41 PM MST
Nautical Twilight 6:47 AM MST 6:15 PM MST
Astronomical Twilight 6:14 AM MST 6:49 PM MST
Moon 9:47 PM MST (1/1) 10:04 AM MST (1/1)
Length of Visible Light 10h 19m
Length of Day
9h 17m
Waning Gibbous, 83% of the Moon is Illuminated
Jan 1
Waning Gibbous
Jan 4
Last Quarter
Jan 11
New
Jan 18
First Quarter
Jan 26
Full

Hourly Weather History & Observations

Time (MST) Temp. Windchill Dew Point Humidity Pressure Visibility Wind Dir Wind Speed Gust Speed Precip Events Conditions
12:33 AM 14.0 °F 8.2 °F 10.4 °F 86% 30.26 in 10.0 mi ESE 3.5 mph - N/A   Overcast
12:58 AM 12.2 °F 4.3 °F 8.6 °F 85% 30.41 in 10.0 mi ESE 4.6 mph - N/A   Overcast
1:08 AM 14.0 °F 6.5 °F 10.4 °F 86% 30.26 in 10.0 mi ESE 4.6 mph - N/A   Overcast
1:58 AM 12.0 °F 0.5 °F 8.1 °F 84% 30.42 in 10.0 mi ESE 8.1 mph - N/A   Overcast
2:08 AM 12.2 °F 0.7 °F 6.8 °F 79% 30.28 in 10.0 mi ESE 8.1 mph - N/A   Overcast
2:13 AM 12.2 °F 1.7 °F 6.8 °F 79% 30.28 in 10.0 mi ESE 6.9 mph - N/A   Overcast
2:38 AM 12.2 °F 0.7 °F 6.8 °F 79% 30.28 in 10.0 mi ESE 8.1 mph - N/A   Overcast
2:58 AM 12.4 °F 0.9 °F 7.7 °F 82% 30.43 in 10.0 mi ESE 8.1 mph - N/A   Overcast
3:58 AM 10.8 °F -1.1 °F 5.9 °F 81% 30.45 in 10.0 mi ESE 8.1 mph - N/A   Overcast
4:03 AM 10.4 °F -0.4 °F 6.8 °F 85% 30.29 in 10.0 mi ESE 6.9 mph - N/A   Overcast
4:18 AM 12.2 °F 1.7 °F 6.8 °F 79% 30.29 in 10.0 mi East 6.9 mph - N/A   Overcast
4:34 AM 12.2 °F 1.7 °F 6.8 °F 79% 30.30 in 10.0 mi East 6.9 mph - N/A Snow Light Snow
4:58 AM 13.1 °F 7.1 °F 8.1 °F 80% 30.45 in 10.0 mi East 3.5 mph - 0.00 in Snow Light Snow
5:17 AM 12.2 °F - 6.8 °F 79% 30.30 in 10.0 mi East 2.3 mph - N/A   Overcast
5:20 AM 12.2 °F 6.1 °F 8.6 °F 85% 30.30 in 10.0 mi East 3.5 mph - N/A Snow Light Snow
5:40 AM 12.2 °F 4.3 °F 8.6 °F 85% 30.30 in 10.0 mi East 4.6 mph - N/A Snow Light Snow
5:45 AM 12.2 °F 4.3 °F 8.6 °F 85% 30.30 in 10.0 mi East 4.6 mph - N/A Snow Light Snow
5:47 AM 12.2 °F 6.1 °F 8.6 °F 85% 30.30 in 10.0 mi East 3.5 mph - N/A   Overcast
5:58 AM 12.7 °F 6.7 °F 8.2 °F 82% 30.46 in 10.0 mi East 3.5 mph - 0.00 in   Overcast
6:28 AM 14.0 °F 8.2 °F 8.6 °F 79% 30.31 in 10.0 mi East 3.5 mph - N/A   Overcast
6:58 AM 13.6 °F 7.7 °F 9.0 °F 82% 30.49 in 10.0 mi East 3.5 mph - N/A   Overcast
7:58 AM 12.6 °F 2.2 °F 8.1 °F 82% 30.49 in 10.0 mi ESE 6.9 mph - N/A   Overcast
8:58 AM 13.5 °F 4.4 °F 8.4 °F 80% 30.51 in 10.0 mi ESE 5.8 mph - N/A   Overcast
9:08 AM 14.0 °F 6.5 °F 8.6 °F 79% 30.34 in 10.0 mi SE 4.6 mph - N/A   Overcast
9:13 AM 14.0 °F 6.5 °F 8.6 °F 79% 30.34 in 10.0 mi ESE 4.6 mph - N/A   Overcast
9:58 AM 16.0 °F 7.4 °F 10.0 °F 77% 30.51 in 10.0 mi ESE 5.8 mph - N/A   Overcast
10:58 AM 19.8 °F - 10.6 °F 68% 30.52 in 10.0 mi ESE 2.3 mph - N/A   Scattered Clouds
11:58 AM 19.8 °F - 13.8 °F 78% 30.50 in 10.0 mi SW 2.3 mph - N/A   Clear
12:13 PM 19.4 °F - 14.0 °F 80% 30.36 in 10.0 mi Calm Calm - N/A   Mostly Cloudy
12:40 PM 21.2 °F - 14.0 °F 74% 30.37 in 10.0 mi WSW 2.3 mph - N/A Rain Light Freezing Rain
12:41 PM 21.2 °F - 14.0 °F 74% 30.37 in 10.0 mi WSW 2.3 mph - N/A   Overcast
12:46 PM 21.2 °F 16.4 °F 14.0 °F 74% 30.37 in 10.0 mi WSW 3.5 mph - N/A   Overcast
12:56 PM 21.2 °F - 14.0 °F 74% 30.37 in 9.0 mi WSW 2.3 mph - N/A   Overcast
12:58 PM 21.2 °F - 14.0 °F 74% 30.51 in 8.0 mi WSW 2.3 mph - 0.00 in   Overcast
1:08 PM 21.2 °F - 14.0 °F 74% 30.36 in 4.0 mi WSW 2.3 mph - N/A   Overcast
1:18 PM 21.2 °F 16.4 °F 15.8 °F 80% 30.36 in 2.5 mi NW 3.5 mph - N/A Snow Light Snow
1:28 PM 21.2 °F 14.9 °F 15.8 °F 80% 30.36 in 3.0 mi NW 4.6 mph - N/A Snow Light Snow
1:38 PM 21.2 °F 13.6 °F 15.8 °F 80% 30.36 in 4.0 mi NW 5.8 mph - N/A Snow Light Snow
1:43 PM 21.2 °F 14.9 °F 15.8 °F 80% 30.35 in 4.0 mi WNW 4.6 mph - N/A Snow Light Snow
1:48 PM 21.2 °F 16.4 °F 15.8 °F 80% 30.35 in 5.0 mi WNW 3.5 mph - N/A Snow Light Snow
1:58 PM 20.5 °F 15.6 °F 15.1 °F 80% 30.49 in 5.0 mi West 3.5 mph - 0.00 in Snow Light Snow
2:03 PM 21.2 °F 16.4 °F 15.8 °F 80% 30.35 in 5.0 mi West 3.5 mph - N/A Snow Light Snow
2:08 PM 21.2 °F 16.4 °F 15.8 °F 80% 30.35 in 5.0 mi WSW 3.5 mph - N/A Snow Light Snow
2:09 PM 21.2 °F 16.4 °F 15.8 °F 80% 30.35 in 6.0 mi WSW 3.5 mph - N/A   Haze
2:14 PM 21.2 °F - 14.0 °F 74% 30.34 in 8.0 mi SW 2.3 mph - N/A   Scattered Clouds
2:58 PM 19.2 °F - 13.8 °F 80% 30.51 in 10.0 mi West 2.3 mph - 0.00 in   Scattered Clouds
3:03 PM 19.4 °F - 14.0 °F 80% 30.35 in 10.0 mi WSW 2.3 mph - N/A   Mostly Cloudy
3:43 PM 19.4 °F 12.8 °F 12.2 °F 74% 30.35 in 10.0 mi SW 4.6 mph - N/A   Scattered Clouds
3:58 PM 19.6 °F 10.6 °F 13.6 °F 78% 30.49 in 10.0 mi WSW 6.9 mph - N/A   Partly Cloudy
4:58 PM 17.1 °F 8.7 °F 12.0 °F 81% 30.48 in 10.0 mi WSW 5.8 mph - N/A   Clear
5:33 PM 15.8 °F 10.2 °F 12.2 °F 86% 30.34 in 10.0 mi West 3.5 mph - N/A   Mostly Cloudy
5:58 PM 17.1 °F - 12.4 °F 82% 30.49 in 10.0 mi North 2.3 mph - N/A   Overcast
6:58 PM 17.2 °F 10.2 °F 12.9 °F 83% 30.51 in 10.0 mi North 4.6 mph - N/A   Overcast
7:33 PM 15.8 °F 8.6 °F 14.0 °F 93% 30.36 in 10.0 mi NNW 4.6 mph - N/A   Overcast
7:43 PM 17.6 °F 10.7 °F 14.0 °F 86% 30.36 in 10.0 mi NNW 4.6 mph - N/A   Scattered Clouds
7:58 PM 16.5 °F 9.4 °F 12.7 °F 85% 30.54 in 10.0 mi NNW 4.6 mph - N/A   Partly Cloudy
8:58 PM 14.9 °F - 12.2 °F 89% 30.54 in 10.0 mi Calm Calm - N/A   Clear
9:58 PM 14.9 °F 5.0 °F 9.3 °F 79% 30.53 in 10.0 mi East 6.9 mph - N/A   Clear
10:58 PM 12.9 °F -0.2 °F 7.3 °F 78% 30.53 in 10.0 mi ESE 10.4 mph - N/A   Clear
11:58 PM 12.0 °F 5.9 °F 7.0 °F 80% 30.55 in 10.0 mi East 3.5 mph - N/A   Clear